{"data":{"norad_id":51639,"intl_designator":"2022-012T","name":"ONEWEB-0445","alt_names":[],"object_type":"PAYLOAD","status":"ACTIVE","operator":null,"country":"UK","launch_date":"2022-02-10","launch_site_code":"FRGUI","launch_vehicle":null,"mission":null,"orbit_class":"UNKNOWN","rcs_meters":null,"size_class":null,"mass_kg":null,"dimensions":null,"purposes":["comms"],"wikipedia_slug":null,"has_3d_model":false,"image_url":null,"decayed_at":null,"tle_current":{"epoch":"2026-09-19T06:22:29.809056Z","epoch_age_seconds":132436,"freshness":"FRESH","line1":"1 51639U 22012T   26262.26562279 -.00000396  00000+0 -11698-2 0  9994","line2":"2 51639  87.8908  17.5314 0001625 104.2514 255.8793 13.10370452221660","mean_motion":13.10370452,"eccentricity":0.0001625,"inclination_deg":87.8908,"raan_deg":17.5314,"arg_perigee_deg":104.2514,"mean_anomaly_deg":255.8793,"bstar":-0.0011698,"rev_number":22166,"period_min":109.8925878405,"perigee_km":1220.4913173015,"apogee_km":1222.9612728724,"semimajor_km":7599.863295087,"source":"CELESTRAK","updated_at":"2026-09-20T09:00:44.711303Z"}}}